Home   Weather   40°01'N, 75°13'W   Past weeks
Flag for USA

Past Weather in 40°01'N, 75°13'W, USA — Yesterday and Last 2 Weeks

Now
82 °F

Passing clouds.


Feels Like: 86 °F
Forecast: 91 / 76 °F
Wind: 5 mph from Southwest

Location: Philadelphia International Airport

Current Time: Jul 22, 2019 at 10:07:36 am

Latest Report: Jul 22, 2019 at 8:54 am


Visibility: 10 mi

Pressure: 29.85 "Hg

Humidity: 67%

Dew Point: 70 °F

Location of 40°01'N, 75°13'WLocation

Past Weather in 40°01'N, 75°13'W — Graph

°F

40°01'N, 75°13'W Temperature Yesterday

Maximum temperature yesterday: 98 °F (at 4:54 pm)
Minimum temperature yesterday: 83 °F (at 3:54 am)
Average temperature yesterday: 90 °F

High & Low Weather Summary for the Past Weeks

 TemperatureHumidityPressure
High98 °F (Jul 21, 4:54 pm)94% (Jul 11, 6:54 pm)30.10 "Hg (Jul 11, 6:54 pm)
Low69 °F (Jul 9, 12:54 am)35% (Jul 15, 4:54 pm)29.74 "Hg (Jul 12, 4:54 am)
Average81 °F69%29.93 "Hg
* Reported Jul 7 8:54 am — Jul 22 8:54 am, 40°01'N, 75°13'W. Weather by CustomWeather, © 2019

Note: Actual official high and low records may vary slightly from our data, if they occured in-between our weather recording intervals... More about our weather records

Advertising

40°01'N, 75°13'W Weather History for the Previous 24 Hours

Scroll right to see more
 ConditionsComfort  
Time TempWeatherWind HumidityBarometerVisibility
8:54 am
Mon, Jul 22
82 °FPassing clouds.5 mph67%29.85 "Hg10 mi
7:54 am80 °FScattered clouds.3 mph71%29.85 "Hg10 mi
6:54 am79 °FScattered clouds.No wind72%29.86 "Hg10 mi
5:54 am78 °FPartly sunny.6 mph71%29.85 "Hg10 mi
4:54 am80 °FPassing clouds.8 mph69%29.86 "Hg10 mi
3:54 am79 °FPartly cloudy.5 mph69%29.84 "Hg10 mi
2:54 am79 °FPassing clouds.3 mph72%29.85 "Hg10 mi
1:54 am80 °FPassing clouds.5 mph67%29.87 "Hg10 mi
12:54 am81 °FMostly cloudy.7 mph67%29.87 "Hg10 mi
11:54 pm
Sun, Jul 21
87 °FMostly cloudy.15 mph57%29.84 "Hg10 mi
11:42 pm87 °FPartly cloudy.15 mph57%29.84 "Hg10 mi
11:33 pm89 °FThundershowers. Partly cloudy.12 mph48%29.85 "Hg10 mi
10:54 pm89 °FPartly cloudy.13 mph63%29.85 "Hg10 mi
9:54 pm91 °FPassing clouds.13 mph60%29.84 "Hg10 mi
8:54 pm93 °FPassing clouds.10 mph56%29.83 "Hg10 mi
7:54 pm93 °FPassing clouds.12 mph56%29.81 "Hg10 mi
6:54 pm96 °FPassing clouds.12 mph51%29.80 "Hg10 mi
5:54 pm98 °FScattered clouds.12 mph43%29.79 "Hg10 mi
4:54 pm98 °FScattered clouds.13 mph45%29.79 "Hg10 mi
3:54 pm97 °FPassing clouds.14 mph48%29.80 "Hg10 mi
2:54 pm97 °FPassing clouds.15 mph46%29.82 "Hg10 mi
1:54 pm97 °FPassing clouds.14 mph45%29.82 "Hg10 mi
12:54 pm96 °FPassing clouds.12 mph47%29.82 "Hg10 mi
11:54 am94 °FPassing clouds.12 mph51%29.84 "Hg10 mi
10:54 am93 °FPassing clouds.10 mph52%29.85 "Hg10 mi
Weather by CustomWeather, © 2019

See weather overview